Total_Precipitation_Accumulation
0.15 0.15 0.14 0.18 0.15 0.08 0.02 0.01 0.00 0.00 0.00 0.01 0.01 0.01 0.01 0.02 0.02 0.08 0.09 0.07 0.08 0.12 0.21 0.41 0.53 0.54 0.65 0.68 0.63 0.59 0.57 0.57 0.60 0.65 0.65 0.64 0.62 0.60 0.62 0.64 0.64 0.71 0.77 0.81 0.84 0.79 0.74 0.71 0.70
0.17 0.21 0.24 0.25 0.12 0.05 0.02 0.01 0.00 0.00 0.00 0.01 0.01 0.01 0.01 0.02 0.02 0.04 0.08 0.07 0.08 0.14 0.21 0.29 0.48 0.54 0.67 0.71 0.65 0.64 0.61 0.59 0.62 0.66 0.65 0.66 0.69 0.69 0.64 0.63 0.68 0.73 0.81 0.87 0.82 0.75 0.73 0.73 0.70
0.28 0.33 0.30 0.25 0.10 0.03 0.02 0.01 0.00 0.00 0.00 0.01 0.01 0.01 0.01 0.02 0.03 0.04 0.06 0.07 0.10 0.14 0.19 0.31 0.50 0.55 0.66 0.73 0.75 0.71 0.69 0.68 0.68 0.68 0.63 0.66 0.70 0.69 0.66 0.66 0.71 0.74 0.77 0.77 0.77 0.74 0.76 0.73 0.66
0.42 0.49 0.38 0.25 0.08 0.02 0.01 0.01 0.00 0.01 0.01 0.01 0.01 0.01 0.02 0.02 0.03 0.04 0.06 0.08 0.10 0.15 0.20 0.35 0.56 0.67 0.73 0.76 0.81 0.79 0.75 0.78 0.79 0.75 0.72 0.75 0.77 0.75 0.69 0.66 0.66 0.69 0.73 0.75 0.70 0.70 0.74 0.75 0.67
0.55 0.57 0.40 0.20 0.06 0.02 0.01 0.01 0.01 0.01 0.01 0.01 0.01 0.02 0.04 0.03 0.03 0.04 0.08 0.10 0.10 0.16 0.24 0.37 0.63 0.80 0.81 0.81 0.85 0.85 0.87 0.92 0.94 0.90 0.88 0.88 0.86 0.85 0.83 0.78 0.69 0.64 0.64 0.66 0.68 0.68 0.70 0.75 0.70
0.71 0.62 0.34 0.13 0.06 0.03 0.01 0.01 0.02 0.02 0.01 0.01 0.01 0.03 0.05 0.07 0.06 0.08 0.12 0.17 0.17 0.21 0.29 0.46 0.78 0.93 0.91 0.91 0.95 0.95 0.94 0.97 0.99 0.98 0.97 0.95 0.91 0.89 0.93 0.88 0.75 0.63 0.55 0.53 0.56 0.59 0.64 0.67 0.66
0.70 0.56 0.27 0.11 0.06 0.05 0.03 0.02 0.03 0.03 0.03 0.02 0.02 0.05 0.07 0.11 0.10 0.12 0.17 0.25 0.30 0.30 0.38 0.56 0.78 0.98 1.05 1.04 1.02 0.97 0.99 0.99 0.98 0.98 0.98 0.96 0.89 0.89 0.90 0.87 0.78 0.66 0.58 0.54 0.52 0.53 0.57 0.58 0.62
0.66 0.62 0.31 0.14 0.10 0.08 0.04 0.03 0.04 0.05 0.05 0.03 0.04 0.05 0.06 0.10 0.13 0.18 0.27 0.36 0.43 0.46 0.54 0.68 0.85 0.96 1.01 1.07 1.05 1.00 0.95 0.94 0.93 0.93 0.95 0.87 0.84 0.84 0.83 0.78 0.72 0.65 0.64 0.61 0.55 0.52 0.53 0.50 0.48
0.78 0.79 0.36 0.12 0.10 0.08 0.04 0.04 0.05 0.05 0.07 0.05 0.06 0.05 0.07 0.10 0.20 0.32 0.44 0.57 0.64 0.68 0.79 0.89 1.01 1.10 1.15 1.15 1.08 1.10 1.04 1.00 0.95 0.92 0.90 0.87 0.84 0.82 0.78 0.71 0.66 0.66 0.65 0.60 0.55 0.52 0.53 0.49 0.43
0.90 0.77 0.31 0.10 0.09 0.09 0.06 0.06 0.07 0.10 0.11 0.07 0.09 0.10 0.12 0.19 0.30 0.37 0.40 0.50 0.61 0.68 0.83 0.93 1.09 1.18 1.26 1.23 1.24 1.24 1.11 1.04 0.97 0.86 0.80 0.83 0.84 0.83 0.75 0.72 0.66 0.64 0.65 0.65 0.64 0.59 0.52 0.46 0.40
0.71 0.52 0.23 0.11 0.10 0.13 0.12 0.10 0.09 0.13 0.14 0.09 0.09 0.13 0.15 0.27 0.35 0.39 0.41 0.47 0.57 0.71 0.87 1.01 1.14 1.30 1.36 1.34 1.32 1.29 1.21 1.12 1.05 0.93 0.91 0.95 0.96 0.92 0.86 0.79 0.73 0.71 0.70 0.74 0.76 0.77 0.65 0.59 0.54
0.53 0.34 0.22 0.15 0.13 0.16 0.17 0.15 0.13 0.13 0.09 0.07 0.08 0.11 0.19 0.26 0.31 0.37 0.45 0.55 0.69 0.87 0.98 1.16 1.33 1.48 1.52 1.49 1.42 1.31 1.21 1.12 1.10 1.03 1.01 1.05 1.04 0.94 0.86 0.82 0.76 0.74 0.73 0.74 0.80 0.83 0.77 0.72 0.65
0.51 0.31 0.23 0.20 0.18 0.18 0.19 0.18 0.15 0.14 0.09 0.11 0.15 0.16 0.22 0.24 0.30 0.41 0.53 0.63 0.73 0.88 1.02 1.24 1.44 1.57 1.65 1.73 1.66 1.44 1.29 1.14 1.09 1.09 1.01 0.96 0.95 0.91 0.84 0.77 0.69 0.64 0.64 0.64 0.67 0.68 0.71 0.70 0.67
0.49 0.36 0.27 0.25 0.26 0.22 0.21 0.18 0.16 0.13 0.12 0.20 0.24 0.24 0.25 0.24 0.29 0.45 0.60 0.68 0.71 0.84 1.03 1.26 1.52 1.69 1.79 1.75 1.77 1.67 1.53 1.35 1.23 1.12 1.05 0.97 0.91 0.88 0.82 0.74 0.65 0.56 0.51 0.49 0.48 0.48 0.53 0.58 0.57
0.53 0.53 0.46 0.35 0.31 0.28 0.29 0.26 0.14 0.10 0.17 0.26 0.32 0.34 0.34 0.32 0.33 0.42 0.56 0.65 0.70 0.83 1.10 1.34 1.60 1.84 1.92 1.86 1.79 1.82 1.82 1.67 1.50 1.31 1.18 1.08 0.98 0.90 0.87 0.83 0.76 0.69 0.62 0.57 0.53 0.48 0.46 0.48 0.49
0.82 0.88 0.76 0.45 0.36 0.35 0.48 0.36 0.12 0.12 0.23 0.29 0.35 0.40 0.40 0.40 0.37 0.39 0.54 0.69 0.81 0.94 1.11 1.41 1.67 1.85 1.87 1.94 1.99 1.91 1.92 1.89 1.69 1.48 1.34 1.19 1.06 0.96 0.94 0.88 0.79 0.76 0.78 0.74 0.69 0.63 0.58 0.51 0.47
1.26 1.10 0.72 0.46 0.40 0.44 0.52 0.35 0.14 0.18 0.27 0.33 0.37 0.41 0.46 0.50 0.48 0.46 0.52 0.64 0.84 0.95 1.08 1.32 1.61 1.74 1.81 1.92 2.09 2.15 2.12 2.02 1.83 1.62 1.46 1.35 1.21 1.04 0.95 0.93 0.85 0.77 0.76 0.75 0.75 0.73 0.70 0.66 0.59
1.09 0.79 0.58 0.45 0.40 0.48 0.48 0.32 0.20 0.24 0.31 0.35 0.36 0.42 0.50 0.51 0.45 0.46 0.55 0.67 0.87 1.03 1.16 1.32 1.61 1.80 1.95 2.07 2.12 2.23 2.26 2.17 2.04 1.87 1.64 1.53 1.42 1.27 1.11 1.01 0.96 0.91 0.85 0.79 0.72 0.72 0.73 0.72 0.68
0.76 0.66 0.57 0.42 0.35 0.47 0.44 0.30 0.22 0.25 0.31 0.35 0.36 0.43 0.48 0.49 0.50 0.56 0.65 0.79 0.95 1.07 1.19 1.32 1.58 1.71 1.91 1.98 1.93 1.85 1.94 1.96 1.97 1.96 1.88 1.77 1.66 1.52 1.36 1.20 1.10 1.07 0.98 0.89 0.80 0.73 0.73 0.72 0.69
0.86 0.82 0.61 0.46 0.39 0.49 0.44 0.30 0.22 0.23 0.29 0.33 0.37 0.43 0.47 0.52 0.59 0.62 0.75 0.90 0.96 1.00 1.12 1.27 1.50 1.64 1.72 1.70 1.69 1.68 1.70 1.78 1.84 1.89 1.95 1.95 1.85 1.69 1.56 1.39 1.23 1.12 1.08 1.00 0.90 0.81 0.76 0.72 0.66
0.93 0.81 0.64 0.58 0.57 0.62 0.60 0.52 0.29 0.26 0.29 0.30 0.37 0.41 0.43 0.49 0.53 0.55 0.67 0.91 1.01 1.01 1.09 1.21 1.40 1.55 1.71 1.83 1.89 1.88 1.99 2.00 1.90 1.81 1.83 1.90 1.89 1.79 1.65 1.53 1.44 1.34 1.21 1.12 1.05 0.98 0.90 0.83 0.74
0.96 0.62 0.60 0.65 0.92 1.10 0.89 0.98 0.45 0.31 0.33 0.31 0.36 0.44 0.42 0.47 0.51 0.52 0.60 0.82 0.99 0.99 1.13 1.28 1.44 1.64 1.73 1.90 1.94 1.77 1.69 1.73 1.64 1.61 1.58 1.69 1.83 1.82 1.72 1.66 1.61 1.48 1.36 1.21 1.12 1.12 1.10 1.07 1.02
0.70 0.57 0.69 0.82 1.06 1.24 0.94 1.03 0.56 0.33 0.42 0.39 0.40 0.48 0.45 0.47 0.52 0.51 0.55 0.74 0.95 1.05 1.15 1.34 1.48 1.69 1.80 1.86 1.89 1.76 1.61 1.52 1.58 1.72 1.76 1.69 1.70 1.80 1.77 1.68 1.64 1.56 1.43 1.34 1.26 1.15 1.13 1.14 1.14
0.69 0.89 1.16 1.30 1.75 1.91 0.89 0.84 0.66 0.52 0.54 0.47 0.45 0.51 0.50 0.49 0.54 0.57 0.60 0.74 0.90 1.03 1.17 1.30 1.52 1.67 1.87 1.89 1.85 1.69 1.53 1.44 1.47 1.57 1.77 1.84 1.80 1.82 1.84 1.74 1.67 1.57 1.42 1.34 1.35 1.28 1.19 1.14 1.13
1.13 1.69 2.64 2.95 2.89 1.76 0.53 0.57 0.68 0.56 0.50 0.51 0.52 0.53 0.51 0.53 0.59 0.60 0.62 0.71 0.80 0.94 1.10 1.24 1.42 1.67 1.85 1.94 1.80 1.63 1.50 1.41 1.38 1.41 1.52 1.65 1.73 1.78 1.79 1.76 1.66 1.55 1.45 1.32 1.31 1.33 1.29 1.23 1.23
1.20 1.39 1.91 2.05 1.54 0.76 0.42 0.52 0.56 0.50 0.42 0.42 0.45 0.50 0.46 0.53 0.64 0.63 0.60 0.68 0.76 0.88 1.03 1.20 1.34 1.59 1.82 1.92 1.83 1.68 1.51 1.43 1.39 1.40 1.41 1.46 1.42 1.47 1.60 1.71 1.75 1.58 1.40 1.33 1.29 1.28 1.24 1.25 1.26
1.12 1.13 0.95 1.27 0.93 0.63 0.56 0.48 0.41 0.36 0.34 0.38 0.44 0.52 0.53 0.57 0.67 0.69 0.66 0.71 0.75 0.86 0.99 1.16 1.30 1.47 1.72 1.92 1.91 1.79 1.61 1.49 1.42 1.39 1.39 1.45 1.40 1.32 1.38 1.52 1.67 1.76 1.65 1.47 1.36 1.31 1.24 1.24 1.27
0.98 1.07 1.27 1.75 1.47 0.86 0.52 0.42 0.49 0.44 0.39 0.40 0.45 0.54 0.55 0.56 0.63 0.69 0.69 0.72 0.78 0.88 1.00 1.12 1.26 1.39 1.57 1.78 1.88 1.84 1.79 1.63 1.55 1.49 1.42 1.39 1.43 1.40 1.33 1.33 1.43 1.53 1.61 1.62 1.53 1.45 1.33 1.29 1.26
1.07 1.33 1.60 1.64 1.30 1.09 0.73 0.56 0.53 0.46 0.40 0.40 0.41 0.51 0.56 0.60 0.65 0.73 0.77 0.75 0.78 0.90 1.02 1.08 1.18 1.35 1.52 1.62 1.70 1.76 1.86 1.71 1.66 1.64 1.55 1.42 1.36 1.42 1.41 1.36 1.42 1.46 1.48 1.51 1.57 1.54 1.48 1.46 1.41
0.92 1.15 1.35 1.65 1.29 0.85 0.83 0.67 0.45 0.38 0.35 0.34 0.36 0.45 0.52 0.56 0.63 0.65 0.70 0.73 0.73 0.82 1.00 1.11 1.18 1.23 1.42 1.56 1.62 1.70 1.82 1.84 1.71 1.68 1.64 1.48 1.36 1.35 1.40 1.43 1.44 1.50 1.55 1.54 1.61 1.60 1.54 1.59 1.57